Powrót do katalogu

STARLINK-37438

AktywnyŁącznośćVLEO
NORAD 69526·PAYLOAD·🇺🇸 United States

Wystrzelony Jun 12, 2026 z Cape Canaveral Space Force Station

Loading…

Następne Przeloty (najbliższe 24 godziny)

TLE

ŚwieżeSource: CelesTrak SupGP

Epoka: Sep 14, 2026, 22:59 UTC

1 69526C 26133U   26257.95812500  .00037861  00000+0  11186-2 0  2575
2 69526  53.1567 255.4243 0001252  94.3345 350.0110 15.34372329    10

Śledź STARLINK-37438 w czasie rzeczywistym z AllMySat

Download on the App Store